******** Week 357 almanac for PRN-1 ******** ID: 1 Health: 0 Eccentricity: 0.001502037048 Time of Applicability(s): 319488 Orbital Inclination(rad): 0.958404831 Rate of Right Ascen(r/s): -8.046049436e-09 SQRT(A) (m 1/2): 5153.578613 Right Ascen at Week(rad): -2.771216813 Argument of Perigee(rad): 0.04308815714 Mean Anom(rad): -0.1084212828 Af0(s): 0.0002637860107 Af1(s/s): -3.637979e-12 week: 357 ******** Week 357 almanac for PRN-2 ******** ID: 2 Health: 0 Eccentricity: 0.01695251465 Time of Applicability(s): 319488 Orbital Inclination(rad): 0.9637977322 Rate of Right Ascen(r/s): -7.897471818e-09 SQRT(A) (m 1/2): 5153.554199 Right Ascen at Week(rad): -2.933774585 Argument of Perigee(rad): -0.8269939104 Mean Anom(rad): 1.3228341 Af0(s): 2.863962402e-05 Af1(s/s): 7.275958e-12 week: 357 ******** Week 357 almanac for PRN-3 ******** ID: 3 Health: 0 Eccentricity: 0.006414890289 Time of Applicability(s): 319488 Orbital Inclination(rad): 0.9928594776 Rate of Right Ascen(r/s): -7.714607058e-09 SQRT(A) (m 1/2): 5153.594727 Right Ascen at Week(rad): -1.784719985 Argument of Perigee(rad): 1.205132533 Mean Anom(rad): -2.283986166 Af0(s): 0.0004522045898 Af1(s/s): -1.091394e-11 week: 357 ******** Week 357 almanac for PRN-4 ******** ID: 4 Health: 0 Eccentricity: 0.00373840332 Time of Applicability(s): 319488 Orbital Inclination(rad): 0.9705508429 Rate of Right Ascen(r/s): -7.646032773e-09 SQRT(A) (m 1/2): 5153.695801 Right Ascen at Week(rad): -0.7135770783 Argument of Perigee(rad): -2.890203689 Mean Anom(rad): 0.7268713288 Af0(s): 3.466901855e-05 Af1(s/s): 3.637979e-12 week: 357 ******** Week 357 almanac for PRN-5 ******** ID: 5 Health: 0 Eccentricity: 0.005376815796 Time of Applicability(s): 319488 Orbital Inclination(rad): 0.9794371457 Rate of Right Ascen(r/s): -7.874613723e-09 SQRT(A) (m 1/2): 5153.648438 Right Ascen at Week(rad): -1.844237391 Argument of Perigee(rad): 1.420374081 Mean Anom(rad): 1.370972485 Af0(s): -0.0001808818359 Af1(s/s): 0 week: 357 ******** Week 357 almanac for PRN-6 ******** ID: 6 Health: 0 Eccentricity: 0.003872871399 Time of Applicability(s): 319488 Orbital Inclination(rad): 0.9873287578 Rate of Right Ascen(r/s): -7.737465153e-09 SQRT(A) (m 1/2): 5153.580566 Right Ascen at Week(rad): -2.821216123 Argument of Perigee(rad): -0.5898957577 Mean Anom(rad): -0.9376113023 Af0(s): -0.0004815978882 Af1(s/s): -3.637979e-12 week: 357 ******** Week 357 almanac for PRN-7 ******** ID: 7 Health: 0 Eccentricity: 0.02034378052 Time of Applicability(s): 319488 Orbital Inclination(rad): 0.9512202881 Rate of Right Ascen(r/s): -7.794610391e-09 SQRT(A) (m 1/2): 5153.572754 Right Ascen at Week(rad): 0.2949167948 Argument of Perigee(rad): -1.998071396 Mean Anom(rad): -1.821597318 Af0(s): -0.000116819519 Af1(s/s): -3.637979e-12 week: 357 ******** Week 357 almanac for PRN-8 ******** ID: 8 Health: 0 Eccentricity: 0.01152801514 Time of Applicability(s): 319488 Orbital Inclination(rad): 0.9437361397 Rate of Right Ascen(r/s): -7.897471818e-09 SQRT(A) (m 1/2): 5153.628418 Right Ascen at Week(rad): 2.342889005 Argument of Perigee(rad): 0.5140539649 Mean Anom(rad): 1.017148356 Af0(s): 0.0003896496216 Af1(s/s): -3.637979e-12 week: 357 ******** Week 357 almanac for PRN-9 ******** ID: 9 Health: 0 Eccentricity: 0.003386974335 Time of Applicability(s): 319488 Orbital Inclination(rad): 0.9646665885 Rate of Right Ascen(r/s): -7.726036106e-09 SQRT(A) (m 1/2): 5153.742676 Right Ascen at Week(rad): -0.777685566 Argument of Perigee(rad): 2.075351671 Mean Anom(rad): 1.608932378 Af0(s): 0.0006082151733 Af1(s/s): 0 week: 357 ******** Week 357 almanac for PRN-10 ******** ID: 10 Health: 0 Eccentricity: 0.01096248627 Time of Applicability(s): 319488 Orbital Inclination(rad): 0.9923980849 Rate of Right Ascen(r/s): -7.726036106e-09 SQRT(A) (m 1/2): 5153.606934 Right Ascen at Week(rad): -1.787231055 Argument of Perigee(rad): -2.258765739 Mean Anom(rad): 3.017252951 Af0(s): -0.0004642633789 Af1(s/s): 0 week: 357 ******** Week 357 almanac for PRN-11 ******** ID: 11 Health: 0 Eccentricity: 0.002215385437 Time of Applicability(s): 319488 Orbital Inclination(rad): 0.9641752353 Rate of Right Ascen(r/s): -7.977475151e-09 SQRT(A) (m 1/2): 5153.516602 Right Ascen at Week(rad): -2.802005411 Argument of Perigee(rad): -2.29119243 Mean Anom(rad): 0.1025815947 Af0(s): -0.0003497048828 Af1(s/s): 1.455192e-11 week: 357 ******** Week 357 almanac for PRN-12 ******** ID: 12 Health: 0 Eccentricity: 0.009056091309 Time of Applicability(s): 319488 Orbital Inclination(rad): 0.9588242788 Rate of Right Ascen(r/s): -7.794610391e-09 SQRT(A) (m 1/2): 5153.728516 Right Ascen at Week(rad): 1.41266448 Argument of Perigee(rad): 1.552847329 Mean Anom(rad): -2.458403451 Af0(s): -0.0004800905395 Af1(s/s): 0 week: 357 ******** Week 357 almanac for PRN-13 ******** ID: 13 Health: 0 Eccentricity: 0.009945869446 Time of Applicability(s): 319488 Orbital Inclination(rad): 0.9762613261 Rate of Right Ascen(r/s): -7.566029441e-09 SQRT(A) (m 1/2): 5153.62793 Right Ascen at Week(rad): -0.6028559479 Argument of Perigee(rad): 0.9986619401 Mean Anom(rad): 0.7575584347 Af0(s): 0.0005426455078 Af1(s/s): 0 week: 357 ******** Week 357 almanac for PRN-14 ******** ID: 14 Health: 0 Eccentricity: 0.006618022919 Time of Applicability(s): 319488 Orbital Inclination(rad): 0.9421781905 Rate of Right Ascen(r/s): -7.977475151e-09 SQRT(A) (m 1/2): 5153.589355 Right Ascen at Week(rad): 1.358311151 Argument of Perigee(rad): -2.757103142 Mean Anom(rad): -2.635863981 Af0(s): 0.0005803292236 Af1(s/s): 3.637979e-12 week: 357 ******** Week 357 almanac for PRN-15 ******** ID: 15 Health: 0 Eccentricity: 0.01659250259 Time of Applicability(s): 319488 Orbital Inclination(rad): 0.9424418434 Rate of Right Ascen(r/s): -7.966046103e-09 SQRT(A) (m 1/2): 5153.63623 Right Ascen at Week(rad): -0.9212674411 Argument of Perigee(rad): 1.498235591 Mean Anom(rad): 0.01487504466 Af0(s): 0.0003044844238 Af1(s/s): 3.637979e-12 week: 357 ******** Week 357 almanac for PRN-16 ******** ID: 16 Health: 0 Eccentricity: 0.01506137848 Time of Applicability(s): 319488 Orbital Inclination(rad): 0.9579614147 Rate of Right Ascen(r/s): -7.817468486e-09 SQRT(A) (m 1/2): 5153.582031 Right Ascen at Week(rad): 1.429679832 Argument of Perigee(rad): 0.9266404934 Mean Anom(rad): 2.0314381 Af0(s): 0.0001627936523 Af1(s/s): 7.275958e-12 week: 357 ******** Week 357 almanac for PRN-17 ******** ID: 17 Health: 0 Eccentricity: 0.01272678375 Time of Applicability(s): 319488 Orbital Inclination(rad): 0.9595073797 Rate of Right Ascen(r/s): -7.783181343e-09 SQRT(A) (m 1/2): 5153.533691 Right Ascen at Week(rad): 2.447279469 Argument of Perigee(rad): -1.126149376 Mean Anom(rad): 0.9277610185 Af0(s): -4.748148193e-05 Af1(s/s): -1.091394e-11 week: 357 ******** Week 357 almanac for PRN-18 ******** ID: 18 Health: 0 Eccentricity: 0.005709648132 Time of Applicability(s): 319488 Orbital Inclination(rad): 0.9722825634 Rate of Right Ascen(r/s): -7.886042771e-09 SQRT(A) (m 1/2): 5153.595215 Right Ascen at Week(rad): -2.825976857 Argument of Perigee(rad): -2.861273395 Mean Anom(rad): -1.055384775 Af0(s): -0.0003376460937 Af1(s/s): 1.091394e-11 week: 357 ******** Week 357 almanac for PRN-19 ******** ID: 19 Health: 0 Eccentricity: 0.01104927063 Time of Applicability(s): 319488 Orbital Inclination(rad): 0.9587164208 Rate of Right Ascen(r/s): -7.760323248e-09 SQRT(A) (m 1/2): 5153.668457 Right Ascen at Week(rad): 2.491176561 Argument of Perigee(rad): 2.924191325 Mean Anom(rad): 2.765215713 Af0(s): 0.0005449065308 Af1(s/s): 0 week: 357 ******** Week 357 almanac for PRN-20 ******** ID: 20 Health: 255 Eccentricity: 0.0003027915955 Time of Applicability(s): 319488 Orbital Inclination(rad): 0.9600886146 Rate of Right Ascen(r/s): -7.748894201e-09 SQRT(A) (m 1/2): 5153.64502 Right Ascen at Week(rad): -0.7719829475 Argument of Perigee(rad): 1.46589204 Mean Anom(rad): 0.3147038736 Af0(s): 0 Af1(s/s): 0 week: 357 ******** Week 357 almanac for PRN-21 ******** ID: 21 Health: 0 Eccentricity: 0.0006651878357 Time of Applicability(s): 319488 Orbital Inclination(rad): 0.9622817277 Rate of Right Ascen(r/s): -8.034620388e-09 SQRT(A) (m 1/2): 5153.705078 Right Ascen at Week(rad): -1.777893097 Argument of Perigee(rad): -0.4060214204 Mean Anom(rad): -2.681890146 Af0(s): 0.0003135285156 Af1(s/s): 7.275958e-12 week: 357 ******** Week 357 almanac for PRN-22 ******** ID: 22 Health: 0 Eccentricity: 0.01214456558 Time of Applicability(s): 319488 Orbital Inclination(rad): 0.9574041482 Rate of Right Ascen(r/s): -7.817468486e-09 SQRT(A) (m 1/2): 5153.570312 Right Ascen at Week(rad): 1.433026427 Argument of Perigee(rad): -0.9944217715 Mean Anom(rad): 1.577753545 Af0(s): -3.768371582e-05 Af1(s/s): 3.637979e-12 week: 357 ******** Week 357 almanac for PRN-23 ******** ID: 23 Health: 0 Eccentricity: 0.006017208099 Time of Applicability(s): 319488 Orbital Inclination(rad): 0.9874066552 Rate of Right Ascen(r/s): -7.783181343e-09 SQRT(A) (m 1/2): 5153.657715 Right Ascen at Week(rad): -1.819239047 Argument of Perigee(rad): -2.74081246 Mean Anom(rad): -2.175448786 Af0(s): 0.0004831052368 Af1(s/s): 3.637979e-12 week: 357 ******** Week 357 almanac for PRN-24 ******** ID: 24 Health: 0 Eccentricity: 0.01786565781 Time of Applicability(s): 319488 Orbital Inclination(rad): 0.9352513085 Rate of Right Ascen(r/s): -8.000333246e-09 SQRT(A) (m 1/2): 5153.591309 Right Ascen at Week(rad): 0.1867969902 Argument of Perigee(rad): 1.133047421 Mean Anom(rad): -0.840587392 Af0(s): -9.948500976e-05 Af1(s/s): 1.455192e-11 week: 357 ******** Week 357 almanac for PRN-25 ******** ID: 25 Health: 0 Eccentricity: 0.01295518875 Time of Applicability(s): 319488 Orbital Inclination(rad): 0.9471995807 Rate of Right Ascen(r/s): -7.908900866e-09 SQRT(A) (m 1/2): 5153.672852 Right Ascen at Week(rad): 1.319017874 Argument of Perigee(rad): 1.15455873 Mean Anom(rad): -2.605388472 Af0(s): 0.0003512122314 Af1(s/s): -3.637979e-12 week: 357 ******** Week 357 almanac for PRN-26 ******** ID: 26 Health: 0 Eccentricity: 0.01100063324 Time of Applicability(s): 319488 Orbital Inclination(rad): 0.9279948603 Rate of Right Ascen(r/s): -8.137481816e-09 SQRT(A) (m 1/2): 5153.642578 Right Ascen at Week(rad): 1.244815298 Argument of Perigee(rad): 0.7070014839 Mean Anom(rad): 2.853861901 Af0(s): -0.0002570029419 Af1(s/s): -7.275958e-12 week: 357 ******** Week 357 almanac for PRN-27 ******** ID: 27 Health: 0 Eccentricity: 0.01429653168 Time of Applicability(s): 319488 Orbital Inclination(rad): 0.9528561348 Rate of Right Ascen(r/s): -7.817468486e-09 SQRT(A) (m 1/2): 5153.617676 Right Ascen at Week(rad): 2.37474682 Argument of Perigee(rad): 0.8740671968 Mean Anom(rad): 1.113239744 Af0(s): -3.090064697e-05 Af1(s/s): -1.091394e-11 week: 357 ******** Week 357 almanac for PRN-28 ******** ID: 28 Health: 0 Eccentricity: 0.0004014968872 Time of Applicability(s): 319488 Orbital Inclination(rad): 0.9621798618 Rate of Right Ascen(r/s): -7.714607058e-09 SQRT(A) (m 1/2): 5153.727539 Right Ascen at Week(rad): 0.2689657047 Argument of Perigee(rad): 0.1769137497 Mean Anom(rad): -1.648517022 Af0(s): -0.0004718001221 Af1(s/s): 7.275958e-12 week: 357 ******** Week 357 almanac for PRN-29 ******** ID: 29 Health: 0 Eccentricity: 0.003307342529 Time of Applicability(s): 319488 Orbital Inclination(rad): 0.9621618855 Rate of Right Ascen(r/s): -7.748894201e-09 SQRT(A) (m 1/2): 5153.724609 Right Ascen at Week(rad): 2.463943908 Argument of Perigee(rad): 2.742037847 Mean Anom(rad): 0.9845389055 Af0(s): -0.0002984550293 Af1(s/s): 7.275958e-12 week: 357 ******** Week 357 almanac for PRN-30 ******** ID: 30 Health: 0 Eccentricity: 0.007980823517 Time of Applicability(s): 319488 Orbital Inclination(rad): 0.9364736994 Rate of Right Ascen(r/s): -7.966046103e-09 SQRT(A) (m 1/2): 5153.708984 Right Ascen at Week(rad): 0.2861937771 Argument of Perigee(rad): -2.332764208 Mean Anom(rad): -1.962821297 Af0(s): 9.345561523e-05 Af1(s/s): 1.091394e-11 week: 357 ******** Week 357 almanac for PRN-31 ******** ID: 31 Health: 0 Eccentricity: 0.01083135605 Time of Applicability(s): 319488 Orbital Inclination(rad): 0.9549773427 Rate of Right Ascen(r/s): -7.806039438e-09 SQRT(A) (m 1/2): 5153.713867 Right Ascen at Week(rad): 0.3190462826 Argument of Perigee(rad): 0.9368431884 Mean Anom(rad): -2.911642718 Af0(s): -0.0001326466797 Af1(s/s): 3.637979e-12 week: 357 ******** Week 357 almanac for PRN-32 ******** ID: 32 Health: 0 Eccentricity: 0.009298324585 Time of Applicability(s): 319488 Orbital Inclination(rad): 0.9677345501 Rate of Right Ascen(r/s): -7.657461821e-09 SQRT(A) (m 1/2): 5153.679199 Right Ascen at Week(rad): -0.7607481111 Argument of Perigee(rad): -2.010888525 Mean Anom(rad): 1.704678096 Af0(s): -7.687478027e-05 Af1(s/s): 1.818989e-11 week: 357